Weather Roundup
Issued by NWS

Home | Current Version | Previous Version | Text Only | Print | Product List | Glossary On
Versions: 1 2 3 4 5 6 7 8 9 10 11 12 13 14 15 16 17 18 19 20 21 22 23 24 25 26 27 28 29 30 31 32 33 34 35 36 37 38 39 40 41 42 43 44 45 46 47 48 49 50
905
NZUS93 KARX 200510
HRRWXR

CURRENT HOURLY OBSERVATIONS ACROSS
MUCH OF THE UPPER MISSISSIPPI VALLEY
NATIONAL WEATHER SERVICE LA CROSSE WI
1200 AM CDT FRI OCT 20 2017


...SOUTHEAST MINNESOTA...


CITY           SKY/WX    TMP DP  RH WIND       PRES   REMARKS
ROCHESTER      FAIR      55  46  71 S12       30.01S
ROCHESTER/MAYO FAIR      58  44  59 SE10      29.99S
WINONA         FAIR      59  41  51 SE5       30.00F
AUSTIN         FAIR      55  46  71 S7        29.99F
ALBERT LEA     NOT AVBL
DODGE CENTER   FAIR      59  46  63 S17       29.98S
PRESTON        FAIR      56  45  66 S9        30.02F
OWATONNA       FAIR      59  48  67 S15G21    29.96S
FARIBAULT      FAIR      57  46  67 S12       29.95S
$$

...ELSEWHERE IN MINNESOTA...


CITY           SKY/WX    TMP DP  RH WIND       PRES   REMARKS
MINNEAPOLIS    FAIR      55  42  61 SE9       29.93F
INTNL FALLS    FAIR      54  35  48 S6        29.79S
DULUTH         FAIR      58  36  43 SW13      29.91S
RED WING       FAIR      57  37  47 SE7       29.96S
REDWOOD FALLS  FAIR      55  48  77 SE7       29.87S
MANKATO        FAIR      60  51  72 S10       29.93F
WORTHINGTON    FAIR      57  50  77 S9        29.92S
FAIRMONT       FAIR      57  51  80 S12       29.94F
$$

...SOUTHWEST WISCONSIN...


CITY           SKY/WX    TMP DP  RH WIND       PRES   REMARKS
LA CROSSE      FAIR      59  40  49 SE7       30.02F
PRAIRIE DU CHI FAIR      57  40  53 CALM      30.06S
BOSCOBEL       FAIR      46  41  82 CALM      30.08R
LONE ROCK      FAIR      53  40  61 E5        30.08F
PLATTEVILLE    FAIR      54  43  66 SE7       30.09S
FORT MC COY    FAIR      62  40  45 S9        30.04S
CAMP DOUGLAS   FAIR      54  35  48 SE3       30.04F
MAUSTON-NEW LI FAIR      58  37  45 S9        30.05S
VIROQUA        FAIR      57  39  50 S10       30.06F
WIS DELLS      FAIR      55  34  43 S9        30.08S
$$

...ELSEWHERE IN WISCONSIN...


CITY           SKY/WX    TMP DP  RH WIND       PRES   REMARKS
MILWAUKEE      FAIR      55  26  32 S7        30.14S
MADISON        FAIR      55  37  50 S5        30.10F
GREEN BAY      FAIR      51  38  60 S6        30.08S
EAU CLAIRE     FAIR      53  36  52 S3        29.99S
BLACK RVR FLS  FAIR      43  36  76 CALM      30.02S
MEDFORD        FAIR      47  35  61 S6        30.03S
WAUSAU         FAIR      53  35  50 SE5       30.04S
WIS RAPIDS     FAIR      51  36  56 S5        30.06F
MARSHFIELD     FAIR      50  34  54 S7        30.03F
RICE LAKE      FAIR      50  37  62 SE5       29.99S
$$

...NORTHEAST IOWA...


CITY           SKY/WX    TMP DP  RH WIND       PRES   REMARKS
WATERLOO       FAIR      56  50  80 SE6       30.03S
DUBUQUE        FAIR      55  48  77 SW7       30.09S
DECORAH        FAIR      55  43  62 S6        30.03S
MASON CITY     FAIR      48  45  89 SE8       30.01F
CHARLES CITY   FAIR      57  48  72 S7        30.02F
OELWEIN        FAIR      54  50  87 S8        30.05F
$$

...ELSEWHERE IN IOWA...


CITY           SKY/WX    TMP DP  RH WIND       PRES   REMARKS
DES MOINES     FAIR      60  52  74 S10       30.02S
IOWA CITY      FAIR      53  49  86 CALM      30.09S
FORT DODGE     FAIR      63  52  67 S14       29.98F
MARSHALLTOWN   FAIR      58  52  80 SE7       30.02F
CEDAR RAPIDS   FAIR      57  50  77 SE7       30.06S
$$

...NORTHERN ILLINOIS...


CITY           SKY/WX    TMP DP  RH WIND       PRES   REMARKS
CHICAGO-OHARE  FAIR      56  38  50 S8        30.15S
CHICAGO-MIDWAY FAIR      58  35  42 S7        30.15F
MOLINE         FAIR      57  49  74 S6        30.09F
ROCKFORD       FAIR      54  37  52 S6        30.14S
PEORIA         FAIR      58  50  75 S5        30.14S
$$

NOTE: "FAIR" INDICATES FEW OR NO CLOUDS BELOW 12,000 FEET WITH NO
SIGNIFICANT WEATHER AND/OR OBSTRUCTIONS TO VISIBILITY. WIND
SPEEDS ARE IN MILES-PER-HOUR.




USA.gov is the U.S. government's official web portal to all federal, state and local government web resources and services.